Change the Weather History Date:

Saturday, February 23, 2013

  Actual Average Record
Temperature  
Mean Temperature 68 °F -  
Max Temperature 75 °F 76 °F 81 °F (2015)
Min Temperature 62 °F 60 °F 55 °F (2009)
Cooling Degree Days 4    
Growing Degree Days 18 (Base 50)    
Moisture  
Dew Point 62 °F    
Average Humidity 80    
Maximum Humidity 94    
Minimum Humidity 61    
Precipitation  
Precipitation 0.30 in - - ()
Sea Level Pressure  
Sea Level Pressure 30.10 in    
Wind  
Wind Speed 12 mph (NE)    
Max Wind Speed 23 mph    
Max Gust Speed 30 mph    
Averages and records for this station are not official NWS values.
T = Trace of Precipitation, MM = Missing Value Source: NWS Daily Summary

Daily Weather History Graph

Daily Weather History Graph

Search for Another Location

Airport or City:

Trip Planner

Search our weather history database for the weather conditions in past years. The results will help you decide how hot, cold, wet, or windy it might be!

Date:

Astronomy

Feb. 23, 2013 Rise Set
Actual Time 6:52 AM HST 6:30 PM HST
Civil Twilight 6:29 AM HST 6:52 PM HST
Nautical Twilight 6:03 AM HST 7:18 PM HST
Astronomical Twilight 5:38 AM HST 7:44 PM HST
Moon 4:57 PM HST (2/23) 5:12 AM HST (2/23)
Length of Visible Light 12h 22m
Length of Day
11h 38m
Waxing Gibbous, 96% of the Moon is Illuminated
Feb 23
Waxing Gibbous
Feb 25
Full
Mar 4
Last Quarter
Mar 11
New
Mar 19
First Quarter

Hourly Weather History & Observations

Time (HST) Temp. Dew Point Humidity Pressure Visibility Wind Dir Wind Speed Gust Speed Precip Events Conditions
12:48 AM 66.2 °F 62.6 °F 88% 30.13 in - NE 23.0 mph 29.9 mph N/A   Mostly Cloudy
12:56 AM 66.9 °F 63.0 °F 87% 30.07 in - NE 23.0 mph 28.8 mph N/A   Clear
1:09 AM 66.2 °F 64.4 °F 94% 30.13 in - NE 18.4 mph 28.8 mph N/A   Mostly Cloudy
1:17 AM 66.2 °F 64.4 °F 94% 30.12 in - ENE 15.0 mph - N/A   Clear
1:56 AM 65.8 °F 61.9 °F 87% 30.08 in - East 9.2 mph - N/A   Mostly Cloudy
2:56 AM 64.9 °F 61.0 °F 87% 30.05 in - NE 6.9 mph - N/A   Mostly Cloudy
3:06 AM 64.4 °F 60.8 °F 88% 30.10 in - NE 4.6 mph - N/A   Clear
3:56 AM 63.9 °F 59.9 °F 87% 30.04 in - NNE 8.1 mph - N/A   Clear
4:56 AM 62.6 °F 60.8 °F 94% 30.10 in - NE 9.2 mph - N/A   Clear
5:56 AM 63.9 °F 59.0 °F 84% 30.06 in - ENE 3.5 mph - N/A   Clear
6:20 AM 62.6 °F 59.0 °F 88% 30.12 in - ENE 6.9 mph - N/A   Mostly Cloudy
6:56 AM 63.0 °F 59.0 °F 87% 30.09 in - ENE 5.8 mph - N/A   Mostly Cloudy
7:09 AM 62.6 °F 59.0 °F 88% 30.14 in - NE 6.9 mph - N/A   Clear
7:56 AM 68.0 °F 60.8 °F 78% 30.15 in - NE 10.4 mph - N/A   Clear
8:56 AM 72.0 °F 61.0 °F 68% 30.12 in - North 4.6 mph - N/A   Clear
9:26 AM 75.2 °F 60.8 °F 61% 30.17 in - WNW 4.6 mph - N/A   Mostly Cloudy
9:56 AM 73.9 °F 61.9 °F 66% 30.12 in - SW 4.6 mph - N/A   Mostly Cloudy
10:18 AM 73.4 °F 62.6 °F 69% 30.17 in - Variable 4.6 mph - N/A   Mostly Cloudy
10:31 AM 73.4 °F 60.8 °F 65% 30.17 in - NW 4.6 mph - N/A   Mostly Cloudy
10:56 AM 72.9 °F 61.9 °F 68% 30.12 in - Calm Calm - N/A   Mostly Cloudy
11:56 AM 74.8 °F 61.0 °F 62% 30.10 in - Variable 3.5 mph - N/A   Mostly Cloudy
12:56 PM 73.9 °F 61.9 °F 66% 30.06 in - ESE 8.1 mph - 0.00 in Rain Light Rain
1:25 PM 69.8 °F 60.8 °F 73% 30.11 in - SW 3.5 mph - 0.01 in Rain Light Rain
1:56 PM 71.6 °F 64.4 °F 78% 30.10 in - Variable 4.6 mph - N/A Rain Light Rain
2:07 PM 73.4 °F 62.6 °F 69% 30.10 in - SW 5.8 mph - 0.00 in   Mostly Cloudy
2:23 PM 73.4 °F 62.6 °F 69% 30.09 in - SW 4.6 mph - 0.00 in   Mostly Cloudy
2:56 PM 75.9 °F 63.0 °F 64% 30.03 in - Variable 6.9 mph - 0.00 in   Overcast
3:38 PM 69.8 °F 62.6 °F 78% 30.09 in - South 5.8 mph - 0.05 in Rain Heavy Rain
3:56 PM 66.9 °F 63.9 °F 90% 30.05 in - Calm Calm - 0.28 in Rain Heavy Rain
4:19 PM 68.0 °F 64.4 °F 88% 30.09 in - NNW 5.8 mph - 0.02 in Rain Light Rain
4:56 PM 66.9 °F 63.0 °F 87% 30.06 in - NE 10.4 mph - 0.02 in   Overcast
5:27 PM 69.8 °F 62.6 °F 78% 30.10 in - NE 11.5 mph - N/A   Mostly Cloudy
5:56 PM 68.9 °F 61.9 °F 78% 30.06 in - NNE 15.0 mph - N/A   Mostly Cloudy
6:56 PM 65.8 °F 61.9 °F 87% 30.08 in - NE 19.6 mph 24.2 mph N/A   Mostly Cloudy
7:56 PM 66.2 °F 62.6 °F 88% 30.13 in - ENE 15.0 mph - N/A   Clear
8:56 PM 64.9 °F 61.0 °F 87% 30.09 in - NE 18.4 mph - N/A   Mostly Cloudy
9:56 PM 64.9 °F 61.0 °F 87% 30.10 in - NE 11.5 mph 21.9 mph N/A   Mostly Cloudy
10:56 PM 64.9 °F 61.0 °F 87% 30.10 in - NE 17.3 mph - N/A   Mostly Cloudy
11:56 PM 64.9 °F 59.9 °F 84% 30.09 in - East 10.4 mph - N/A   Clear